• MPC Preparation (Info)

  • MPEC 2022-P24 : 2022 OX5

    The following Minor Planet Electronic Circular may be linked-to from your own Web pages, but must not otherwise be redistributed electronically.

    A form allowing access to any MPEC is at the bottom of this page.


    Read MPEC 2022-P23 Read MPEC 2022-P25


    M.P.E.C. 2022-P24                                Issued 2022 August 2, 17:30 UT
    
         The Minor Planet Electronic Circulars contain information on unusual
             minor planets and routine data on comets.  They are published
        on behalf of Division F of the International Astronomical Union by the
              Minor Planet Center, Smithsonian Astrophysical Observatory,
                              Cambridge, MA 02138, U.S.A.
    
                 Prepared using the Tamkin Foundation Computer Network
    
                                  MPC@CFA.HARVARD.EDU
                URL https://www.minorplanetcenter.net/    ISSN 1523-6714
    
                                    2022 OX5                                 
    
    
    Observations:
         K22O05X* C2022 07 30.38234720 38 59.178-35 58 26.19         21.48wUEP024F52
         K22O05X  C2022 07 30.39125120 39 00.576-35 58 30.48         21.95wUEP024F52
         K22O05X  C2022 07 30.40015420 39 01.955-35 58 34.13         21.69wUEP024F52
         K22O05X  C2022 07 30.46201420 39 11.530-35 58 57.46         21.09GVEP024F52
         K22O05X  C2022 07 30.46264420 39 11.651-35 58 57.72         21.43GVEP024F52
         K22O05X |C2022 07 31.22000 20 41 26.76 -36 02 43.3          21.2 GVEP024807
         K22O05X |C2022 07 31.22588 20 41 27.71 -36 02 44.9          21.5 GVEP024807
         K22O05X |C2022 07 31.23177 20 41 28.66 -36 02 46.6          21.4 GVEP024807
         K22O05X ^C2022 07 31.36569920 41 54.843-36 04 01.88         21.75GVEP024568
         K22O05X ^C2022 07 31.36796820 41 55.201-36 04 02.75         21.67GVEP024568
         K22O05X ^C2022 07 31.36894720 41 55.358-36 04 03.13         21.59GVEP024568
         K22O05X ^C2022 08 02.43164120 48 05.836-36 13 02.37         21.67GVEP024568
         K22O05X ^C2022 08 02.43261720 48 05.991-36 13 02.53         21.63GVEP024568
         K22O05X ^C2022 08 02.43359420 48 06.143-36 13 02.84         21.69GVEP024568
    
    Observer details:
    568 Mauna Kea.  Observers R. Wainscoat, L. Wells, H. Flewelling.  Measurers R.
        Weryk, R. Wainscoat.  3.6-m Canada-France-Hawaii Telescope + CCD.
    807 Cerro Tololo Observatory, La Serena.  Observers T. Linder, R. Holmes, L.
        Horn.  1.00-m f/10.0 astrograph + CCD.
    F52 Pan-STARRS 2, Haleakala.  Observers J. Bulger, T. Lowe, A. Schultz, I.
        Smith, K. Chambers, T. Dukes.  Measurers K. Chambers, S. Chastel, T. de
        Boer, J. Fairlamb, H. Gao, M. Huber, C.-C. Lin, E. Magnier, Y.
        Ramanjooloo, R. Wainscoat, R. Weryk.  1.8-m Ritchey-Chretien + CCD.
    
    Orbital elements:
    2022 OX5                                                 Earth MOID = 0.1816 AU
    Epoch 2022 Aug. 9.0 TT = JDT 2459800.5                  MPC                     
    M 359.63900              (2000.0)            P               Q                  
    n   0.33087069     Peri.  241.34544     +0.71854827     +0.69326950             
    a   2.0702868      Node    74.70442     -0.61637481     +0.67167638             
    e   0.4264760      Incl.    3.29075     -0.32213426     +0.26120536             
    P   2.98           H   24.23          G   0.15           U   8                  
    Residuals in seconds of arc
    220730 F52  0.1-  0.6+    220731 807  0.3-  0.2-    220731 568  0.0   0.0
    220730 F52  0.1+  0.1+    220731 807  0.0   0.0     220802 568  0.0   0.0
    220730 F52  0.0   0.1+    220731 807  0.3+  0.0     220802 568  0.0   0.1+
    220730 F52  0.1+  0.1-    220731 568  0.0   0.0     220802 568  0.0   0.1-
    220730 F52  0.4+  0.2-    220731 568  0.0   0.0
    
    Ephemeris:
    2022 OX5                 a,e,i = 2.07, 0.43, 3                   q = 1.1874
    Date    TT    R. A. (2000) Decl.     Delta      r    Elong.  Phase     V
    2022 07 03    19 32 38.3 -29 58 17   0.2371  1.2493   167.6    10.0    22.2
    ...
    2022 07 18    20 04 56.7 -33 47 39   0.1989  1.2108   166.8    11.1    21.8
    ...
    2022 07 26    20 26 16.3 -35 23 12   0.1878  1.1975   164.1    13.4    21.8
    ...
    2022 08 01    20 43 46.9 -36 06 34   0.1836  1.1910   162.0    15.2    21.8
    2022 08 02    20 46 47.4 -36 10 49   0.1832  1.1903   161.7    15.5    21.8
    2022 08 03    20 49 48.9 -36 14 09   0.1829  1.1896   161.4    15.8    21.8
    ...
    2022 08 09    21 08 08.9 -36 13 53   0.1832  1.1874   159.7    17.2    21.8
    ...
    2022 08 17    21 31 59.1 -35 19 14   0.1885  1.1895   158.1    18.5    21.9
    ...
    2022 09 01    22 10 00.6 -31 18 18   0.2143  1.2085   156.2    19.7    22.3
    
    M. P. C. Staff               (C) Copyright 2022 MPC           M.P.E.C. 2022-P24
    


    Read MPEC 2022-P23 Read MPEC 2022-P25


    MPEC number:

    Enter an MPEC number in one of the following forms:

    • 1997-B01 (the full form)
    • J97B01 (the packed version of the full form)
    • B01 (the abbreviated form)